Location: Unspecified
(54.1780°N, 0.0000°E)
Time: 04:09:49
(UTC+00:00)

Explorer 7 - Pass Details

Date: 27 June 2019
Orbit: 485 x 680 km, 50.3° (Epoch: 19 July)

Event Time Altitude Azimuth Distance (km) Brightness Sun altitude
Rises 07:25:17 0° 221° (SW) 2,705 10.0 30.7°
Reaches altitude 10° 07:27:41 10° 209° (SSW) 1,849 9.4 31.0°
Maximum altitude 07:31:15 27° 151° (SSE) 1,141 9.1 31.5°
Drops below altitude 10° 07:35:01 10° 94° (E) 1,962 11.2 32.1°
Sets 07:37:39 0° 83° (E) 2,907 11.6 32.5°
